User: anonymous   Login
Location: Unspecified
(0.0000°N, 0.0000°E)
Time: 07:07:39
(UTC+00:00)
Language:

CANX 3B (BRITE-ASRA) - Orbit

View from above orbital plane
View from above orbital plane
View from above satellite
View from above satellite

Ground track
Ground track

The orbit data is extracted from the following two-line orbital elements,

1 39091U 13009F   17118.81043281 +.00000036 +00000-0 +27866-4 0  9992
2 39091 098.5549 324.1045 0011724 094.1196 266.1330 14.35023914218406
Epoch (UTC): 28 April 2017 19:27:01
Eccentricity: 0.0011724
inclination: 98.5549°
perigee height: 766 km
apogee height: 783 km
right ascension of ascending node: 324.1045°
argument of perigee: 94.1196°
revolutions per day: 14.35023914
mean anomaly at epoch: 266.1330°
orbit number at epoch: 21840

The dashed part of the orbit path shows where the satellite is in the earth's shadow,  

DLR